[[{"header":{"parameterUnit":"m.s-1","parameterCategory":1,"la1":30.2991,"la2":30.254,"lo1":-89.0895,"lo2":-89.0444,"dy":0.0017,"dx":0.0017,"nx":28,"ny":28,"refTime":"2023-09-17T21:00:00:Z","depth":0,"parameterNumber":2,"parameterNumberName":"U-component_of_WINDS"},"data":[0,0,0,0,0,0,0,0,0,0,0,0,0,0,0,0,0,0,0,0,0,0,0,0,0,0,0,0,0,0,0,0,0,0,0,0,0,0,0,0,0,0,0,0,0,0,0,0,0,0,0,0,0,0,0,0,0,0,-1.7319,-1.732,0,-1.7379,-1.738,-1.738,-1.7332,-1.733,-1.7328,-1.7326,-1.7388,-1.7391,-1.7395,0,0,0,0,0,0,0,0,0,0,0,0,0,-1.7163,-1.7166,-1.7319,-1.732,-1.732,-1.7379,-1.738,-1.738,-1.7333,-1.733,-1.7328,-1.7325,-1.7387,-1.7391,-1.7395,0,0,0,0,0,0,0,0,0,0,0,0,0,-1.7227,-1.7167,-1.7319,-1.7304,-1.7303,-1.7379,-1.738,-1.7381,-1.7333,-1.733,-1.7327,-1.7324,-1.7385,-1.739,-1.7396,-1.749,0,0,-1.7412,-1.7414,0,0,0,0,0,0,0,0,-1.7224,-1.7233,-1.7305,-1.7305,-1.7304,-1.7345,-1.7347,-1.7417,-1.7334,-1.7322,-1.7326,-1.7323,-1.7376,-1.7382,-1.74,-1.7493,-1.7495,-1.7412,-1.7416,-1.7418,-1.7419,0,0,0,0,0,0,0,-1.7219,-1.723,-1.7343,-1.7306,-1.7306,-1.7294,-1.7299,-1.736,-1.7365,-1.7323,-1.7319,-1.7327,-1.7375,-1.7395,-1.7401,-1.7496,-1.7412,-1.7417,-1.742,-1.7422,-1.7669,-1.7672,0,0,0,0,0,0,-1.7216,-1.7227,-1.7341,-1.7344,-1.7256,-1.7299,-1.7305,-1.7335,-1.7365,-1.7366,-1.7329,-1.7324,-1.7387,-1.7395,-1.7403,-1.7516,-1.7418,-1.7423,-1.7426,-1.7666,-1.767,-1.7673,0,0,0,0,0,0,-1.7213,-1.7227,-1.7338,-1.7285,-1.7298,-1.7305,-1.7338,-1.7338,-1.7357,-1.737,-1.737,-1.7349,-1.7385,-1.7396,-1.7469,-1.7517,-1.7425,-1.743,-1.7662,-1.7667,-1.7672,-1.7742,0,0,0,0,0,0,-1.7209,-1.7226,-1.7262,-1.7286,-1.7301,-1.7403,-1.7341,-1.7341,-1.7367,-1.7361,-1.7388,-1.739,-1.7384,-1.7461,-1.7474,-1.7523,-1.7434,-1.7657,-1.7664,-1.767,-1.7735,-1.7749,-1.776,0,0,0,0,0,-1.7204,-1.7279,-1.7264,-1.7278,-1.7346,-1.7406,-1.7415,-1.7406,-1.7371,-1.7407,-1.7415,-1.7389,-1.7509,-1.7469,-1.7483,-1.7534,-1.7654,-1.7662,-1.767,-1.773,-1.7746,-1.776,0,0,0,0,0,0,-1.7262,-1.7282,-1.7266,-1.7352,-1.7378,-1.7398,-1.7444,-1.7424,-1.7461,-1.7454,-1.7441,-1.7448,-1.7525,-1.7536,-1.7491,-1.7627,-1.7576,-1.7587,-1.7617,-1.7633,-1.7645,-1.7641,-1.7439,0,0,0,0,0,-1.7284,-1.7331,-1.7347,-1.7421,-1.7435,-1.7437,-1.7463,-1.7454,-1.748,-1.7491,-1.7504,-1.7531,-1.7575,-1.7604,-1.7645,-1.7736,-1.7742,-1.7778,-1.779,-1.7801,-1.7811,-1.7861,-1.7877,-1.7698,-1.7698,-1.7698,0,0,-1.7332,-1.7349,-1.7379,-1.7433,-1.7452,-1.7501,-1.7447,-1.7501,-1.7537,-1.7499,-1.757,-1.758,-1.7609,-1.7691,-1.7728,-1.7703,-1.7861,-1.781,-1.7818,-1.7823,-1.787,-1.7887,-1.7902,-1.7704,-1.7703,-1.7702,0,0,-1.7444,-1.7461,-1.7526,-1.7546,-1.7575,-1.7576,-1.7591,-1.7615,-1.762,-1.769,-1.7663,-1.7705,-1.7781,-1.7803,-1.7824,-1.7944,-1.7921,-1.7957,-1.8023,-1.8072,-1.8086,-1.8098,-1.8142,-1.8158,-1.7967,-1.7967,-1.7967,0,-1.75,-1.7573,-1.7561,-1.7618,-1.7642,-1.7609,-1.7675,-1.7694,-1.7736,-1.7754,-1.7724,-1.7819,-1.7836,-1.7924,-1.7953,-1.797,-1.7988,-1.7955,-1.8085,-1.8097,-1.8109,-1.815,-1.8167,-1.7971,-1.7971,-1.797,-1.797,0,-1.7641,-1.7692,-1.774,-1.7781,-1.7811,-1.7871,-1.7868,-1.79,-1.7888,-1.7892,-1.7963,-1.7982,-1.8027,-1.8046,-1.8035,-1.8133,-1.8116,-1.8086,-1.8035,-1.813,-1.8169,-1.8185,-1.7977,-1.7976,-1.7974,-1.7973,0,0,-1.7793,-1.7826,-1.7844,-1.7863,-1.7892,-1.7931,-1.799,-1.8033,-1.8061,-1.809,-1.814,-1.8204,-1.8176,-1.82,-1.819,-1.8233,-1.8328,-1.8197,-1.8198,-1.8223,-1.8438,-1.8462,-1.8481,-1.8312,-1.8315,-1.8317,-1.8436,0,-1.7908,-1.8011,-1.8002,-1.8099,-1.8147,-1.8115,-1.8167,-1.819,-1.8195,-1.8236,-1.824,-1.8287,-1.8246,-1.826,-1.83,-1.8308,-1.8371,-1.8299,-1.8359,-1.8361,-1.8355,-1.8501,-1.8527,-1.8638,-1.8451,-1.8454,-1.8455,0,-1.8057,-1.8092,-1.8194,-1.8216,-1.8236,-1.8282,-1.8321,-1.836,-1.8386,-1.8386,-1.8413,-1.8396,-1.8455,-1.8401,-1.8483,-1.8434,-1.8457,-1.8464,-1.8468,-1.8476,-1.8416,-1.8514,-1.8673,-1.869,-1.8479,-1.8477,-1.8476,0,-1.816,-1.8232,-1.8303,-1.8319,-1.8347,-1.838,-1.8393,-1.8416,-1.8442,-1.8476,-1.8493,-1.8533,-1.8556,-1.8587,-1.8582,-1.8543,-1.8665,-1.861,-1.8668,-1.8668,-1.8697,-1.8696,-1.8864,-1.8709,-1.8709,-1.8708,-1.8708,0,-1.8291,-1.8356,-1.835,-1.8394,-1.8465,-1.8453,-1.8523,-1.8532,-1.8552,-1.8597,-1.8571,-1.8614,-1.8603,-1.8645,-1.8641,-1.871,-1.872,-1.8722,-1.8721,-1.8726,-1.8726,-1.8743,-1.8736,-1.8713,-1.8712,-1.8711,-1.871,0,-1.842,-1.8418,-1.8494,-1.8513,-1.8519,-1.8571,-1.8588,-1.8629,-1.8631,-1.8688,-1.8701,-1.8704,-1.8752,-1.8749,-1.8803,-1.88,-1.8886,-1.8874,-1.8878,-1.8876,-1.8934,-1.893,-1.9121,-1.9146,-1.8973,-1.8975,-1.8976,0,-1.8505,-1.8554,-1.8578,-1.8606,-1.8622,-1.8667,-1.8694,-1.8684,-1.8713,-1.8746,-1.8783,-1.8829,-1.8865,-1.8944,-1.8951,-1.8992,-1.8983,-1.9047,-1.8989,-1.8993,-1.8986,-1.8984,-1.899,-1.9059,-1.9061,-1.9063,-1.9064,0,-1.8656,-1.8653,-1.8693,-1.8733,-1.8766,-1.8797,-1.8825,-1.8849,-1.8841,-1.8875,-1.8925,-1.8953,-1.9008,-1.9054,-1.9094,-1.9106,-1.9085,-1.9082,-1.9098,-1.9105,-1.9106,-1.9108,-1.8911,-1.9078,-1.9077,-1.9076,-1.9075,-1.9074,-1.8767,-1.8809,-1.8833,-1.8878,-1.8898,-1.8925,-1.8965,-1.8972,-1.9012,-1.9057,-1.9047,-1.9103,-1.9127,-1.9177,-1.9194,-1.9237,-1.9214,-1.9237,-1.9243,-1.9249,-1.9257,-1.9097,-1.9244,-1.9244,-1.9243,-1.9243,-1.9242,0,-1.8918,-1.8932,-1.8974,-1.9014,-1.905,-1.9025,-1.9054,-1.9086,-1.9136,-1.9159,-1.9196,-1.9252,-1.9296,-1.9307,-1.9349,-1.9382,-1.9373,-1.9393,-1.9392,-1.9396,-1.9274,-1.9257,-1.94,-1.94,-1.94,-1.94,-1.94,-1.94,-1.9002,-1.9072,-1.9072,-1.9151,-1.9164,-1.9219,-1.9238,-1.9262,-1.9282,-1.9346,-1.9383,-1.9389,-1.9407,-1.9451,-1.949,-1.9492,-1.951,-1.9535,-1.9533,-1.942,-1.9404,-1.9389,-1.9373,-1.9538,-1.9538,-1.9651,-1.9652,-1.9653]},{"header":{"parameterUnit":"m.s-1","parameterCategory":1,"la1":30.2991,"la2":30.254,"lo1":-89.0895,"lo2":-89.0444,"dy":0.0017,"dx":0.0017,"nx":28,"ny":28,"refTime":"2023-09-17T21:00:00:Z","depth":0,"parameterNumber":3,"parameterNumberName":"V-component_of_WINDS"},"data":[0,0,0,0,0,0,0,0,0,0,0,0,0,0,0,0,0,0,0,0,0,0,0,0,0,0,0,0,0,0,0,0,0,0,0,0,0,0,0,0,0,0,0,0,0,0,0,0,0,0,0,0,0,0,0,0,0,0,-3.8794,-3.8795,0,-3.8895,-3.8896,-3.8897,-3.8839,-3.8836,-3.8833,-3.883,-3.8931,-3.8937,-3.8942,0,0,0,0,0,0,0,0,0,0,0,0,0,-3.8549,-3.8553,-3.8794,-3.8795,-3.8797,-3.8895,-3.8896,-3.8898,-3.8839,-3.8836,-3.8832,-3.8829,-3.893,-3.8936,-3.8942,0,0,0,0,0,0,0,0,0,0,0,0,0,-3.8653,-3.8555,-3.8794,-3.8779,-3.8779,-3.8895,-3.8896,-3.8898,-3.884,-3.8836,-3.8831,-3.8827,-3.8928,-3.8935,-3.8943,-3.9078,0,0,-3.8968,-3.8971,0,0,0,0,0,0,0,0,-3.8647,-3.8662,-3.878,-3.8781,-3.878,-3.885,-3.8847,-3.8958,-3.8841,-3.8817,-3.883,-3.8825,-3.8908,-3.8917,-3.8945,-3.9083,-3.9087,-3.8968,-3.8973,-3.8977,-3.8979,0,0,0,0,0,0,0,-3.864,-3.8657,-3.8834,-3.8782,-3.8782,-3.8767,-3.8777,-3.8868,-3.8885,-3.8818,-3.8814,-3.8827,-3.8907,-3.8938,-3.8947,-3.9089,-3.8968,-3.8975,-3.898,-3.8983,-3.9342,-3.9347,0,0,0,0,0,0,-3.8634,-3.8652,-3.8831,-3.8837,-3.8702,-3.8775,-3.8786,-3.8832,-3.8884,-3.8887,-3.8831,-3.8824,-3.8926,-3.8938,-3.895,-3.9112,-3.8977,-3.8984,-3.8989,-3.9338,-3.9343,-3.9348,0,0,0,0,0,0,-3.8629,-3.8651,-3.8827,-3.8743,-3.8765,-3.8784,-3.8836,-3.8836,-3.8867,-3.8893,-3.8896,-3.8859,-3.8923,-3.8939,-3.9047,-3.9115,-3.8988,-3.8995,-3.9332,-3.9339,-3.9346,-3.9437,0,0,0,0,0,0,-3.8622,-3.8649,-3.8701,-3.8745,-3.8769,-3.8923,-3.884,-3.8841,-3.8881,-3.8873,-3.8921,-3.8924,-3.8921,-3.9035,-3.9055,-3.9124,-3.9001,-3.9326,-3.9335,-3.9344,-3.9428,-3.9446,-3.9462,0,0,0,0,0,-3.8614,-3.8722,-3.8704,-3.8726,-3.8835,-3.8927,-3.8941,-3.8935,-3.8887,-3.8939,-3.8956,-3.8923,-3.9104,-3.9047,-3.9069,-3.9141,-3.9322,-3.9333,-3.9343,-3.942,-3.9442,-3.9461,0,0,0,0,0,0,-3.8685,-3.8728,-3.8708,-3.8834,-3.8878,-3.8917,-3.8982,-3.8959,-3.9016,-3.9007,-3.8997,-3.9008,-3.9121,-3.9141,-3.9077,-3.9274,-3.9205,-3.9221,-3.9257,-3.9278,-3.9295,-3.9288,-3.9008,0,0,0,0,0,-3.8716,-3.8788,-3.882,-3.8929,-3.8951,-3.8963,-3.9003,-3.8995,-3.9039,-3.9057,-3.9081,-3.9125,-3.9191,-3.9236,-3.9298,-3.943,-3.9439,-3.949,-3.9507,-3.9521,-3.9535,-3.9606,-3.9629,-3.9383,-3.9383,-3.9383,0,0,-3.8779,-3.8812,-3.8857,-3.8944,-3.8976,-3.905,-3.8979,-3.906,-3.9115,-3.9069,-3.9173,-3.9192,-3.924,-3.936,-3.9415,-3.9381,-3.9604,-3.9534,-3.9545,-3.9552,-3.9619,-3.9642,-3.9663,-3.939,-3.9389,-3.9388,0,0,-3.8933,-3.8965,-3.9059,-3.9093,-3.9143,-3.9151,-3.9173,-3.9216,-3.9228,-3.9332,-3.9299,-3.9363,-3.9478,-3.9514,-3.9547,-3.9714,-3.9686,-3.9735,-3.9824,-3.9893,-3.9913,-3.993,-3.999,-4.0012,-3.9748,-3.9748,-3.9749,0,-3.9006,-3.9117,-3.911,-3.9194,-3.9233,-3.9195,-3.929,-3.9323,-3.9391,-3.9419,-3.938,-3.9524,-3.9553,-3.9682,-3.9723,-3.975,-3.9776,-3.973,-3.9911,-3.9928,-3.9944,-4.0001,-4.0023,-3.9754,-3.9753,-3.9753,-3.9752,0,-3.9204,-3.9281,-3.9351,-3.9419,-3.9465,-3.9554,-3.956,-3.9607,-3.9596,-3.9607,-3.9713,-3.9747,-3.9816,-3.9846,-3.9835,-3.9973,-3.995,-3.9912,-3.9842,-3.9973,-4.0026,-4.0048,-3.9762,-3.976,-3.9759,-3.9757,0,0,-3.9406,-3.9469,-3.9495,-3.9525,-3.9578,-3.9637,-3.9724,-3.9793,-3.9834,-3.9882,-3.9954,-4.0053,-4.0017,-4.0055,-4.0047,-4.0108,-4.0239,-4.0062,-4.0062,-4.0094,-4.0393,-4.0423,-4.0449,-4.022,-4.0224,-4.0228,-4.039,0,-3.9564,-3.9717,-3.9713,-3.9855,-3.9926,-3.9892,-3.9967,-4.0008,-4.002,-4.0082,-4.0095,-4.0165,-4.0113,-4.0135,-4.0194,-4.0211,-4.0299,-4.0199,-4.0287,-4.0291,-4.0277,-4.0476,-4.0508,-4.0659,-4.041,-4.0414,-4.0417,0,-3.9769,-3.9825,-3.9974,-4.0017,-4.0047,-4.0115,-4.0177,-4.0237,-4.0281,-4.0286,-4.0328,-4.0311,-4.0398,-4.0327,-4.0447,-4.0379,-4.0414,-4.0428,-4.0434,-4.0442,-4.0362,-4.0491,-4.0707,-4.073,-4.0449,-4.0447,-4.0444,0,-3.9902,-4.0015,-4.0119,-4.0146,-4.0198,-4.0247,-4.027,-4.0311,-4.0352,-4.0406,-4.0433,-4.0496,-4.0531,-4.058,-4.058,-4.0528,-4.0702,-4.063,-4.0708,-4.0709,-4.0747,-4.0745,-4.0973,-4.0769,-4.0769,-4.0769,-4.0768,0,-4.0079,-4.0172,-4.0179,-4.0244,-4.0346,-4.034,-4.0442,-4.0461,-4.0497,-4.0564,-4.0537,-4.06,-4.0596,-4.0659,-4.066,-4.0759,-4.0775,-4.0781,-4.078,-4.0784,-4.0784,-4.0808,-4.0798,-4.0775,-4.0773,-4.0772,-4.0771,0,-4.0246,-4.0254,-4.0366,-4.0406,-4.0418,-4.0492,-4.0527,-4.0587,-4.0597,-4.0682,-4.0701,-4.0717,-4.0791,-4.0795,-4.088,-4.088,-4.1001,-4.0988,-4.0987,-4.0985,-4.1063,-4.1056,-4.1315,-4.1349,-4.1123,-4.1125,-4.1127,0,-4.0358,-4.0429,-4.0477,-4.0521,-4.0548,-4.0617,-4.066,-4.0656,-4.0701,-4.0758,-4.0811,-4.0882,-4.0939,-4.1058,-4.1076,-4.1141,-4.113,-4.1216,-4.1139,-4.1141,-4.1132,-4.1128,-4.1135,-4.1231,-4.1234,-4.1236,-4.1238,0,-4.0558,-4.0559,-4.0621,-4.0686,-4.0738,-4.0788,-4.0835,-4.0871,-4.0873,-4.0925,-4.1,-4.1044,-4.1131,-4.1202,-4.1265,-4.1288,-4.1264,-4.1262,-4.1283,-4.1288,-4.1285,-4.1288,-4.1028,-4.1256,-4.1254,-4.1253,-4.1252,-4.1251,-4.0701,-4.0763,-4.0807,-4.0877,-4.0912,-4.0957,-4.1016,-4.1034,-4.1097,-4.1168,-4.1161,-4.1245,-4.1287,-4.1369,-4.1398,-4.1463,-4.1433,-4.1464,-4.1472,-4.148,-4.1489,-4.1274,-4.1474,-4.1473,-4.1473,-4.1472,-4.1472,0,-4.09,-4.0926,-4.0991,-4.1058,-4.1114,-4.1086,-4.1137,-4.1185,-4.1259,-4.1301,-4.1358,-4.1444,-4.1513,-4.1537,-4.1603,-4.1651,-4.1641,-4.1668,-4.1665,-4.1671,-4.1511,-4.1486,-4.1675,-4.1675,-4.1675,-4.1675,-4.1675,-4.1675,-4.1009,-4.1112,-4.1119,-4.1238,-4.1264,-4.1346,-4.1377,-4.1418,-4.1452,-4.155,-4.1607,-4.1623,-4.1657,-4.1726,-4.1788,-4.1793,-4.1819,-4.1851,-4.1852,-4.1702,-4.1682,-4.1663,-4.1639,-4.1857,-4.1857,-4.2006,-4.2007,-4.2009]}]]